TimeMDT,TemperatureF,Dew PointF,Humidity,Sea Level PressureIn,VisibilityMPH,Wind Direction,Wind SpeedMPH,Gust SpeedMPH,PrecipitationIn,Events,Conditions,WindDirDegrees,DateUTC
12:53 AM,73.0,41.0,31,29.83,10.0,Calm,Calm,-,N/A,,Clear,0,2013-07-04 06:53:00
1:53 AM,68.0,42.1,39,29.82,10.0,Calm,Calm,-,N/A,,Clear,0,2013-07-04 07:53:00
2:53 AM,68.0,43.0,40,29.82,10.0,ESE,5.8,-,N/A,,Clear,120,2013-07-04 08:53:00
3:53 AM,66.0,42.1,42,29.82,10.0,SE,8.1,-,N/A,,Clear,140,2013-07-04 09:53:00
4:53 AM,66.0,41.0,40,29.80,10.0,SE,6.9,-,N/A,,Clear,130,2013-07-04 10:53:00
5:53 AM,66.9,39.9,37,29.81,10.0,SE,8.1,-,N/A,,Clear,140,2013-07-04 11:53:00
6:53 AM,66.0,42.1,42,29.84,10.0,SE,8.1,-,N/A,,Clear,140,2013-07-04 12:53:00
7:53 AM,70.0,41.0,35,29.85,10.0,SSE,5.8,-,N/A,,Clear,150,2013-07-04 13:53:00
8:53 AM,75.0,42.1,31,29.84,10.0,NE,4.6,-,N/A,,Clear,50,2013-07-04 14:53:00
9:53 AM,78.1,42.1,28,29.83,10.0,Calm,Calm,-,N/A,,Clear,0,2013-07-04 15:53:00
10:53 AM,82.0,42.1,24,29.80,10.0,NW,5.8,-,N/A,,Clear,320,2013-07-04 16:53:00
11:53 AM,86.0,39.9,20,29.79,10.0,WNW,9.2,-,N/A,,Clear,290,2013-07-04 17:53:00
12:53 PM,84.0,41.0,22,29.80,10.0,NW,11.5,-,N/A,,Clear,310,2013-07-04 18:53:00
1:53 PM,84.9,39.9,20,29.80,10.0,North,9.2,-,N/A,,Clear,350,2013-07-04 19:53:00
2:53 PM,84.9,39.9,20,29.78,10.0,North,4.6,-,N/A,,Clear,360,2013-07-04 20:53:00
3:53 PM,86.0,39.0,19,29.76,10.0,Calm,Calm,-,N/A,,Clear,0,2013-07-04 21:53:00
4:53 PM,89.1,37.9,16,29.73,10.0,Calm,Calm,-,N/A,,Clear,0,2013-07-04 22:53:00
5:53 PM,89.1,34.0,14,29.70,10.0,Calm,Calm,-,N/A,,Clear,0,2013-07-04 23:53:00
6:53 PM,90.0,36.0,15,29.70,10.0,Calm,Calm,-,N/A,,Clear,0,2013-07-05 00:53:00
7:53 PM,87.1,36.0,16,29.69,10.0,Calm,Calm,-,N/A,,Clear,0,2013-07-05 01:53:00
8:53 PM,81.0,46.9,30,29.70,10.0,Calm,Calm,-,N/A,,Clear,0,2013-07-05 02:53:00
9:53 PM,75.0,45.0,34,29.72,10.0,SE,6.9,-,N/A,,Clear,130,2013-07-05 03:53:00
10:53 PM,73.0,43.0,34,29.72,10.0,SE,9.2,-,N/A,,Clear,140,2013-07-05 04:53:00
11:53 PM,72.0,42.1,34,29.72,10.0,ESE,6.9,-,N/A,,Clear,120,2013-07-05 05:53:00